Weather in Kozhil

Russia / Udmurt Republic     58°08′27″N   52°27′07″E
temp.,
°C
wind,
m/s
gust,
m/s
humid.,
%
clouds,
%
prec.,
mm/h
press.,
hPa
HPBL,
m
26 january, tue
tue2601:00−2sw5109499 0.1 1024402
04:00−2sw51093100 0.1 1024490
07:00−4ssw4994100 0.1 1025507
10:00−4ssw4893100 0.1 1025592
13:00−5ssw4794100 0.1 1024430
16:00−4ssw3995100 0.3 1023529
19:00−3ssw3996100 0.3 1023449
22:00−3ssw3895100 0.4 1022399
27 january, wed
wed2701:00−3ssw41095100 0.2 1022545
04:00−6s4995100 0.3 1022297
07:00−4s41095100 0.1 1022507
10:00−3ssw51093100 0.3 1022487
13:00−2s51092100 0.1 1021709
16:00−2ssw61189100 0.1 1019780
19:00−3s61491100 0.1 1018646
22:00−2ssw61495100 1.3 1016612
28 january, thu
thu2801:00−3ssw61396100 3.0 1016606
04:00−4ssw51396100 5.3 1015593
07:00−4ssw51296100 3.1 1014555
10:00−3sw51296100 5.4 1015539
13:00−2sw4897100 2.4 1016501
16:00−2sw3797100 3.3 1017413
19:00−4ssw2498100 0.3 1018186
22:00−5s2397100 0.5 101984
29 january, fri
fri2901:00−6sse2297100 0.2 101974
04:00−6se2497100 0.6 1019156
07:00−8ese2596100 0.1 1019140
10:00−8ese3795100 0.1 1018256
13:00−7ese489396 0.0 1017334
16:00−7e4109296 0.0 1015339
19:00−7e51291100 0.0 1013414
22:00−6e51388100 0.0 1012412
30 january, sat
sat3001:00−8e71390100 0.0 1011503
04:00−10ese61393100 0.2 1010523
07:00−9ese61391100 0.3 1009449
10:00−8ese51194100 0.4 1009422
13:00−4se5996100 0.5 1010485
16:00−4se4995100 0.9 1010451
19:00−4se6119499 0.1 1010582
22:00−3sse51196100 0.4 1010683